Terminal Aerodrome Forecast
Issued by NWS

Home | Current Version | Previous Version | Text Only | Print | Product List | Glossary On
Versions: 1 2 3 4 5 6 7 8 9 10 11 12 13 14 15 16 17 18 19 20
000
FTUS44 KSJT 221100 AAB
TAFBBD
TAF AMD
KBBD 221108Z 2211/2306 22012KT P6SM SCT012 BKN250
     FM221500 24011KT P6SM SCT015=

USA.gov is the U.S. government's official web portal to all federal, state and local government web resources and services.